TimeCDT,TemperatureF,Dew PointF,Humidity,Sea Level PressureIn,VisibilityMPH,Wind Direction,Wind SpeedMPH,Gust SpeedMPH,PrecipitationIn,Events,Conditions,WindDirDegrees,DateUTC
12:15 AM,64.4,-9999,N/A,30.22,0.5,East,4.6,-,0.00,,Overcast,90,2012-10-13 05:15:00
12:35 AM,64.4,-9999,N/A,30.21,0.5,East,4.6,-,0.00,,Overcast,90,2012-10-13 05:35:00
12:55 AM,64.4,-9999,N/A,30.20,0.2,East,3.5,-,0.00,,Overcast,90,2012-10-13 05:55:00
1:15 AM,64.4,-9999,N/A,30.20,0.5,East,3.5,-,N/A,,Overcast,100,2012-10-13 06:15:00
1:35 AM,64.4,-9999,N/A,30.21,0.8,East,3.5,-,0.00,,Overcast,90,2012-10-13 06:35:00
1:55 AM,64.4,-9999,N/A,30.20,1.0,ESE,3.5,-,0.00,,Overcast,110,2012-10-13 06:55:00
2:15 AM,64.4,-9999,N/A,30.19,1.8,Calm,Calm,-,0.00,,Overcast,0,2012-10-13 07:15:00
2:35 AM,64.4,-9999,N/A,30.19,2.0,East,3.5,-,0.00,,Overcast,100,2012-10-13 07:35:00
2:55 AM,64.4,-9999,N/A,30.19,2.5,Calm,Calm,-,N/A,,Overcast,0,2012-10-13 07:55:00
3:15 AM,64.4,-9999,N/A,30.18,2.5,East,3.5,-,N/A,,Mostly Cloudy,90,2012-10-13 08:15:00
3:35 AM,64.4,-9999,N/A,30.19,3.0,East,3.5,-,0.00,,Mostly Cloudy,100,2012-10-13 08:35:00
3:55 AM,64.4,-9999,N/A,30.18,2.5,East,3.5,-,N/A,,Mostly Cloudy,100,2012-10-13 08:55:00
4:15 AM,64.4,-9999,N/A,30.18,2.5,Calm,Calm,-,0.00,,Mostly Cloudy,0,2012-10-13 09:15:00
4:35 AM,64.4,-9999,N/A,30.18,2.5,Calm,Calm,-,0.00,,Mostly Cloudy,0,2012-10-13 09:35:00
4:55 AM,64.4,-9999,N/A,30.18,2.5,ESE,3.5,-,0.00,,Mostly Cloudy,120,2012-10-13 09:55:00
5:15 AM,64.4,-9999,N/A,30.18,2.5,SE,3.5,-,0.00,,Scattered Clouds,130,2012-10-13 10:15:00
5:35 AM,62.6,-9999,N/A,30.17,2.0,SE,4.6,-,N/A,,Clear,130,2012-10-13 10:35:00
5:55 AM,64.4,-9999,N/A,30.17,3.0,SE,6.9,-,0.00,,Clear,140,2012-10-13 10:55:00
6:15 AM,64.4,-9999,N/A,30.18,4.0,SSE,5.8,-,N/A,,Scattered Clouds,150,2012-10-13 11:15:00
6:35 AM,64.4,-9999,N/A,30.17,4.0,SE,5.8,-,0.00,,Partly Cloudy,140,2012-10-13 11:35:00
6:50 AM,64.4,64.4,100,30.19,4.0,SSE,5.8,-,N/A,,Scattered Clouds,150,2012-10-13 11:50:00
7:50 AM,64.4,64.4,100,30.21,4.0,SSE,4.6,-,N/A,,Mostly Cloudy,150,2012-10-13 12:50:00
9:50 AM,66.2,66.2,100,30.21,5.0,South,9.2,-,N/A,,Scattered Clouds,170,2012-10-13 14:50:00
10:50 AM,71.6,69.8,94,30.21,8.0,SSW,11.5,-,N/A,,Scattered Clouds,200,2012-10-13 15:50:00
11:50 AM,78.8,64.4,61,30.17,8.0,SSW,17.3,24.2,N/A,,Mostly Cloudy,210,2012-10-13 16:50:00
12:50 PM,80.6,62.6,54,30.13,8.0,SSW,17.3,26.5,N/A,,Mostly Cloudy,200,2012-10-13 17:50:00
1:50 PM,82.4,60.8,48,30.10,8.0,South,17.3,23.0,N/A,,Mostly Cloudy,180,2012-10-13 18:50:00
2:50 PM,80.6,62.6,54,30.08,10.0,South,17.3,23.0,N/A,,Mostly Cloudy,180,2012-10-13 19:50:00
3:50 PM,80.6,62.6,54,30.07,10.0,South,16.1,-,N/A,,Mostly Cloudy,190,2012-10-13 20:50:00
4:50 PM,78.8,62.6,57,30.06,10.0,South,13.8,20.7,N/A,,Mostly Cloudy,170,2012-10-13 21:50:00
5:50 PM,77.0,62.6,61,30.06,10.0,South,9.2,-,N/A,,Mostly Cloudy,180,2012-10-13 22:50:00
6:50 PM,73.4,64.4,73,30.05,10.0,South,5.8,-,N/A,,Mostly Cloudy,170,2012-10-13 23:50:00
7:50 PM,71.6,64.4,78,30.05,10.0,South,8.1,-,N/A,,Mostly Cloudy,170,2012-10-14 00:50:00
8:55 PM,69.8,64.4,83,30.04,10.0,SSE,8.1,-,N/A,,Clear,160,2012-10-14 01:55:00
9:15 PM,69.8,64.4,83,30.04,10.0,SSE,9.2,-,0.00,,Clear,160,2012-10-14 02:15:00
9:35 PM,69.8,64.4,83,30.05,10.0,SSE,8.1,-,0.00,,Clear,160,2012-10-14 02:35:00
9:55 PM,69.8,64.4,83,30.04,7.0,SSE,9.2,-,0.00,,Clear,160,2012-10-14 02:55:00
10:15 PM,69.8,66.2,88,30.03,10.0,SSE,9.2,-,0.00,,Clear,160,2012-10-14 03:15:00
10:35 PM,68.0,66.2,94,30.03,10.0,SSE,8.1,-,0.00,,Clear,160,2012-10-14 03:35:00
10:55 PM,69.8,66.2,88,30.03,10.0,South,10.4,-,0.00,,Clear,170,2012-10-14 03:55:00
11:15 PM,69.8,64.4,83,30.02,8.0,South,10.4,-,0.00,,Clear,170,2012-10-14 04:15:00
11:35 PM,69.8,64.4,83,30.01,9.0,South,9.2,-,0.00,,Clear,170,2012-10-14 04:35:00
11:55 PM,69.8,66.2,88,30.01,10.0,South,11.5,-,N/A,,Clear,170,2012-10-14 04:55:00